Home > Weather > Lynchburg > Past weeks

Flag for U.S.A. Weather for the Past 2 Weeks in Lynchburg, Virginia, U.S.A.

Now
22 °F

Clear.


Feels Like: 22 °F
Forecast: 20 / 44 °F
Wind: No wind

Location: Lynchburg Regional Airport

Current Time: Feb 6, 2016 at 6:59:58 AM

Latest Report: Feb 6, 2016 at 5:54 AM


Visibility: 10 mi

Pressure: 30.44 "Hg

Humidity: 82%

Dew point: 17 °F

Location of LynchburgLocation

Historic Weather in Lynchburg — Graph

°F

Lynchburg Temperature Yesterday

Maximum temperature yesterday: 44 °F (at 2:54 PM)
Minimum temperature yesterday: 25 °F (at 11:54 PM)
Average temperature yesterday: 36 °F

High & Low Weather Summary for the Past Weeks

 TemperatureHumidityPressure
High65 °F (Feb 1, 11:54 AM)100% (Jan 28, 9:54 AM)30.44 "Hg (Jan 28, 9:54 AM)
Low16 °F (Jan 24, 7:54 AM)22% (Jan 24, 1:54 PM)29.57 "Hg (Jan 23, 7:04 AM)
Average37 °F70%30.03 "Hg
* Reported Jan 22 5:54 AM — Feb 6 5:54 AM, Lynchburg, Weather by CustomWeather, © 2016

Note: Actual official high and low records may vary slightly from our data, if they occured in-between our weather recording intervals... More about our weather records

Advertising

Lynchburg Weather History for the Previous 24 Hours

 ConditionsComfort  
Time TempWeatherWind HumidityBarometerVisibility
5:54 AM
Sat, Feb 6
22 °FClear.No wind82%30.44 "Hg10 mi
4:54 AM22 °FClear.No wind82%30.43 "Hg10 mi
3:54 AM23 °FClear.No wind81%30.42 "Hg10 mi
2:54 AM23 °FClear.No wind78%30.42 "Hg10 mi
1:54 AM23 °FClear.No wind78%30.41 "Hg10 mi
12:54 AM25 °FClear.No wind66%30.41 "Hg10 mi
11:54 PM
Fri, Feb 5
25 °FClear.No wind69%30.42 "Hg10 mi
10:54 PM27 °FClear.No wind63%30.41 "Hg10 mi
9:54 PM28 °FClear.No wind58%30.41 "Hg10 mi
8:54 PM29 °FClear.No wind64%30.39 "Hg10 mi
7:54 PM32 °FClear.3 mph52%30.39 "Hg10 mi
6:54 PM36 °FClear.3 mph37%30.37 "Hg10 mi
5:54 PM39 °FClear.3 mph30%30.35 "Hg10 mi
4:54 PM42 °FSunny.7 mph28%30.33 "Hg10 mi
3:54 PM43 °FSunny.8 mph27%30.32 "Hg10 mi
2:54 PM44 °FSunny.9 mph27%30.30 "Hg10 mi
1:54 PM42 °FSunny.9 mph30%30.31 "Hg10 mi
12:54 PM40 °FSunny.8 mph33%30.32 "Hg10 mi
11:54 AM39 °FSunny.14 mph36%30.35 "Hg10 mi
10:54 AM38 °FSunny.9 mph41%30.35 "Hg10 mi
9:54 AM36 °FSunny.8 mph44%30.33 "Hg10 mi
8:54 AM34 °FSunny.9 mph48%30.29 "Hg10 mi
7:54 AM33 °FSunny.7 mph52%30.25 "Hg10 mi
6:54 AM33 °FPassing clouds.5 mph56%30.22 "Hg10 mi
Weather by CustomWeather, © 2016

See weather overviewHow to use our weather pages